Chicago Executive Airport (PWK)


Airport Diagram
Current Weather/Forecast (VFR Conditions)
METAR KPWK 171452Z 22007KT 10SM CLR 25/18 A3011 RMK AO2 SLP193 T02500178 51006
TAF

All Charts
General
Chart Name Download
AIRPORT DIAGRAM
TAKEOFF MINIMUMS
ALTERNATE MINIMUMS
HOT SPOT
LAHSO

Departures
Chart Name Download
JORJO FIVE (RNAV)
MONKZ FIVE (RNAV)
MONKZ FIVE (RNAV), CONT.1
PAL-WAUKEE FIVE

Approaches
Chart Name Download
ILS OR LOC RWY 16
RNAV (GPS) RWY 16
VOR RWY 16